Chicopee, MA

8:02 AM EST on February 24, 2018 (GMT -0500)
Westover Air Reserve Base / Metropolitan Airport

Weather History for KCEF - February, 2013

Change the Weather History Date:

Sunday, February 17, 2013

  Actual Average Record
Temperature  
Mean Temperature 20 °F -  
Max Temperature 26 °F 35 °F 52 °F (2011)
Min Temperature 13 °F 18 °F -3 °F (2015)
Degree Days  
Heating Degree Days 45    
Moisture  
Dew Point 2 °F    
Average Humidity 44    
Maximum Humidity 55    
Minimum Humidity 35    
Precipitation  
Precipitation 0.00 in - - ()
Sea Level Pressure  
Sea Level Pressure 29.65 in    
Wind  
Wind Speed 19 mph (NNW)    
Max Wind Speed 25 mph    
Max Gust Speed 34 mph    
Visibility 10 miles    
Events      
Averages and records for this station are not official NWS values.
T = Trace of Precipitation, MM = Missing Value Source: NWS Daily Summary

Daily Weather History Graph

Daily Weather History Graph

Search for Another Location

Airport or City:

Trip Planner

Search our weather history database for the weather conditions in past years. The results will help you decide how hot, cold, wet, or windy it might be!

Date:

Astronomy

Feb. 17, 2013 Rise Set
Actual Time 6:43 AM EST 5:25 PM EST
Civil Twilight 6:14 AM EST 5:54 PM EST
Nautical Twilight 5:41 AM EST 6:26 PM EST
Astronomical Twilight 5:09 AM EST 6:59 PM EST
Moon 10:25 AM EST (2/17) 12:27 AM EST (2/17)
Length of Visible Light 11h 39m
Length of Day
10h 42m
Waxing Crescent, 49% of the Moon is Illuminated
Feb 17
Waxing Crescent
Feb 17
First Quarter
Feb 25
Full
Mar 4
Last Quarter
Mar 11
New

Hourly Weather History & Observations

Time (EST) Temp. Windchill Dew Point Humidity Pressure Visibility Wind Dir Wind Speed Gust Speed Precip Events Conditions
12:55 AM 26.4 °F 12.5 °F 4.6 °F 39% 29.72 in 10.0 mi NNE 20.7 mph 29.9 mph N/A   Overcast
1:55 AM 25.7 °F 13.1 °F 3.9 °F 39% 29.72 in 10.0 mi NNE 16.1 mph 25.3 mph N/A   Overcast
2:55 AM 24.6 °F 10.9 °F 4.1 °F 41% 29.69 in 10.0 mi NNE 18.4 mph - N/A   Overcast
3:55 AM 23.9 °F 10.8 °F 4.5 °F 43% 29.68 in 10.0 mi North 16.1 mph - N/A   Overcast
4:55 AM 23.2 °F 9.4 °F 4.6 °F 45% 29.65 in 10.0 mi North 17.3 mph 24.2 mph N/A   Overcast
5:55 AM 22.3 °F 7.0 °F 2.7 °F 43% 29.62 in 10.0 mi North 20.7 mph 26.5 mph N/A   Overcast
6:55 AM 21.9 °F 9.2 °F 3.7 °F 46% 29.60 in 10.0 mi North 13.8 mph - N/A   Overcast
7:55 AM 21.7 °F 6.7 °F 1.6 °F 42% 29.58 in 10.0 mi North 19.6 mph 31.1 mph N/A   Overcast
8:55 AM 21.4 °F 8.5 °F 1.0 °F 41% 29.57 in 10.0 mi NNW 13.8 mph 21.9 mph N/A   Overcast
9:55 AM 21.6 °F 7.3 °F 1.4 °F 42% 29.53 in 10.0 mi NNW 17.3 mph 23.0 mph N/A   Mostly Cloudy
10:55 AM 21.6 °F 5.7 °F 4.3 °F 47% 29.55 in 10.0 mi NNW 21.9 mph 28.8 mph N/A   Overcast
11:55 AM 21.9 °F 5.5 °F 4.1 °F 46% 29.54 in 10.0 mi North 24.2 mph 33.4 mph N/A   Mostly Cloudy
12:55 PM 22.5 °F 6.2 °F 3.6 °F 44% 29.55 in 10.0 mi North 24.2 mph 33.4 mph N/A   Mostly Cloudy
1:55 PM 24.6 °F 11.7 °F 1.9 °F 38% 29.55 in 10.0 mi NNW 16.1 mph 28.8 mph N/A   Mostly Cloudy
2:55 PM 26.2 °F 13.4 °F 1.8 °F 35% 29.55 in 10.0 mi NNW 17.3 mph 27.6 mph N/A   Partly Cloudy
3:55 PM 26.1 °F 12.3 °F 2.8 °F 37% 29.57 in 10.0 mi WNW 19.6 mph 26.5 mph N/A   Partly Cloudy
4:55 PM 23.0 °F 6.6 °F 1.6 °F 40% 29.61 in 10.0 mi NW 25.3 mph 33.4 mph N/A   Clear
5:55 PM 21.2 °F 7.3 °F 1.2 °F 42% 29.67 in 10.0 mi WNW 16.1 mph - N/A   Clear
6:55 PM 19.0 °F 3.6 °F 2.5 °F 49% 29.70 in 10.0 mi WNW 18.4 mph 25.3 mph N/A   Clear
7:55 PM 17.4 °F -0.5 °F 0.9 °F 48% 29.72 in 10.0 mi WNW 24.2 mph 34.5 mph N/A   Clear
8:55 PM 15.8 °F -2.3 °F 0.9 °F 52% 29.75 in 10.0 mi WNW 23.0 mph 27.6 mph N/A   Clear
9:55 PM 14.9 °F -3.9 °F -0.4 °F 51% 29.77 in 10.0 mi WNW 24.2 mph 32.2 mph N/A   Partly Cloudy
10:55 PM 14.0 °F -3.9 °F -0.0 °F 54% 29.80 in 10.0 mi WNW 20.7 mph 27.6 mph N/A   Clear
11:55 PM 13.5 °F -2.7 °F -0.2 °F 55% 29.83 in 10.0 mi NW 16.1 mph - N/A   Partly Cloudy